Home > Weather > Douala > Past weeks

Flag for Cameroon Weather for the Past 2 Weeks in Douala, Cameroon

Now
91 °F

Partly sunny.


Feels Like: 103 °F
Forecast: 76 / 92 °F
Wind: 5 mph from Southwest

Location: Douala Obs.

Current Time: Feb 12, 2016 at 1:19:35 PM

Latest Report: Feb 12, 2016 at 1:00 PM


Visibility: 1 mi

Pressure: 29.83 "Hg

Humidity: 59%

Dew point: 75 °F

Location of DoualaLocation

Historic Weather in Douala — Graph

°F

Douala Temperature Yesterday

Maximum temperature yesterday: 91 °F (at 12:00 PM)
Minimum temperature yesterday: 79 °F (at 3:00 AM)
Average temperature yesterday: 85 °F

High & Low Weather Summary for the Past Weeks

 TemperatureHumidityPressure
High97 °F (Jan 29, 3:00 PM)100% (Jan 29, 1:00 AM)29.95 "Hg (Jan 29, 1:00 AM)
Low73 °F (Jan 30, 7:00 AM)27% (Jan 29, 3:00 PM)29.71 "Hg (Feb 2, 4:00 PM)
Average84 °F79%29.84 "Hg
* Reported Jan 28 12:00 Noon — Feb 12 12:00 Noon, Douala, Weather by CustomWeather, © 2016

Note: Actual official high and low records may vary slightly from our data, if they occured in-between our weather recording intervals... More about our weather records

Advertising

Douala Weather History for the Previous 24 Hours

 ConditionsComfort  
Time TempWeatherWind HumidityBarometerVisibility
12:00 PM
Fri, Feb 12
90 °FPartly sunny.6 mph67%29.86 "Hg1 mi
11:00 AM88 °FPartly sunny.1 mph70%29.86 "Hg1 mi
10:00 AM84 °FPartly sunny.2 mph74%29.89 "Hg1 mi
9:00 AM82 °FFog.3 mph84%29.86 "Hg1 mi
8:00 AM79 °FFog.No wind94%29.86 "Hg1 mi
7:00 AM77 °FFog.No wind94%29.83 "Hg1 mi
6:00 AM79 °FFog.No wind94%29.83 "Hg1 mi
5:00 AM79 °FFog.1 mph94%29.80 "Hg1 mi
4:00 AM79 °FFog.2 mph94%29.80 "Hg1 mi
3:00 AM81 °FFog.1 mph94%29.83 "Hg1 mi
2:00 AM81 °FFog.1 mph94%29.80 "Hg1 mi
1:00 AM82 °FPassing clouds.1 mph94%29.83 "Hg1 mi
12:00 AM84 °FPassing clouds.2 mph84%29.83 "Hg1 mi
11:00 PM
Thu, Feb 11
84 °FPassing clouds.2 mph84%29.86 "Hg1 mi
10:00 PM84 °FPassing clouds.2 mph84%29.83 "Hg1 mi
9:00 PM84 °FPassing clouds.3 mph84%29.80 "Hg1 mi
8:00 PM84 °FPartly cloudy.3 mph79%29.80 "Hg1 mi
7:00 PM86 °FPartly cloudy.3 mph66%29.77 "Hg1 mi
6:00 PM88 °FBroken clouds.5 mph55%29.74 "Hg1 mi
5:00 PM90 °FBroken clouds.7 mph52%29.74 "Hg1 mi
4:00 PM91 °FBroken clouds.13 mph49%29.74 "Hg1 mi
3:00 PM91 °FBroken clouds.10 mph56%29.77 "Hg1 mi
2:00 PM91 °FBroken clouds.8 mph49%29.80 "Hg1 mi
1:00 PM91 °FPartly sunny.8 mph56%29.83 "Hg1 mi
Weather by CustomWeather, © 2016

See weather overviewHow to use our weather pages